| time (UTC) | temp F | wind direction | speed knots | gust knots | rain 1hr in | rain 24hr in | rain mn in | humidity % | barometer mb |
| 20260906044304 | 74 | 208 | 0.0 | 0.0 | 0.00 | 0.00 | 0.00 | 88 | 979.9 |
| 20260906043805 | 74 | 208 | 0.0 | 0.0 | 0.00 | 0.00 | 0.00 | 88 | 979.8 |
| 20260906043305 | 74 | 208 | 0.0 | 0.0 | 0.00 | 0.00 | 0.00 | 88 | 979.8 |
| 20260906041805 | 74 | 208 | 0.0 | 0.0 | 0.00 | 0.00 | 0.00 | 87 | 979.8 |
| 20260906041305 | 74 | 208 | 0.0 | 0.0 | 0.00 | 0.00 | 0.00 | 87 | 979.8 |
| 20260906040934 | 75 | 208 | 0.0 | 0.0 | 0.00 | 0.00 | 0.00 | 87 | 979.9 |
| 20260906040305 | 75 | 208 | 0.0 | 0.0 | 0.00 | 0.00 | 0.00 | 86 | 979.9 |
| 20260906034804 | 75 | 208 | 0.0 | 0.0 | 0.00 | 0.00 | 0.00 | 85 | 980.0 |
| 20260906034304 | 75 | 208 | 0.0 | 0.0 | 0.00 | 0.00 | 0.00 | 85 | 980.0 |
| 20260906033304 | 75 | 208 | 0.0 | 0.0 | 0.00 | 0.00 | 0.00 | 85 | 980.0 |
| 20260906031804 | 75 | 208 | 0.0 | 0.0 | 0.00 | 0.00 | 0.00 | 84 | 980.0 |
| 20260906031305 | 76 | 208 | 0.0 | 0.9 | 0.00 | 0.00 | 0.00 | 85 | 980.0 |
| 20260906030804 | 76 | 153 | 0.0 | 0.9 | 0.00 | 0.00 | 0.00 | 85 | 980.0 |
| 20260906024804 | 76 | 293 | 0.0 | 1.7 | 0.00 | 0.00 | 0.00 | 83 | 980.1 |
| 20260906024305 | 77 | 202 | 0.0 | 1.7 | 0.00 | 0.00 | 0.00 | 82 | 980.1 |
| 20260906023804 | 77 | 202 | 0.0 | 2.6 | 0.00 | 0.00 | 0.00 | 81 | 980.1 |
| 20260906023304 | 77 | 202 | 0.0 | 2.6 | 0.00 | 0.00 | 0.00 | 81 | 980.1 |
| 20260906021308 | 76 | 193 | 0.0 | 1.7 | 0.00 | 0.00 | 0.00 | 81 | 979.8 |
| 20260906020805 | 76 | 190 | 0.0 | 1.7 | 0.00 | 0.00 | 0.00 | 81 | 979.8 |
| 20260906020304 | 76 | 181 | 0.0 | 0.0 | 0.00 | 0.00 | 0.00 | 81 | 979.8 |
| 20260906014804 | 76 | 181 | 0.0 | 0.0 | 0.00 | 0.00 | 0.00 | 82 | 979.6 |
| 20260906014305 | 76 | 181 | 0.0 | 0.0 | 0.00 | 0.00 | 0.00 | 82 | 979.5 |
| 20260906013804 | 76 | 181 | 0.0 | 0.0 | 0.00 | 0.00 | 0.00 | 81 | 979.4 |
| 20260906013304 | 76 | 181 | 0.0 | 0.0 | 0.00 | 0.00 | 0.00 | 82 | 979.4 |
| 20260906011804 | 76 | 181 | 0.0 | 0.0 | 0.00 | 0.00 | 0.00 | 81 | 979.4 |
| 20260906011304 | 77 | 181 | 0.0 | 0.0 | 0.00 | 0.00 | 0.00 | 80 | 979.4 |
| 20260906010805 | 77 | 181 | 0.0 | 0.0 | 0.00 | 0.00 | 0.00 | 80 | 979.3 |
| 20260906010305 | 77 | 181 | 0.0 | 0.0 | 0.00 | 0.00 | 0.00 | 79 | 979.2 |
| 20260906004805 | 78 | 204 | 0.0 | 0.0 | 0.00 | 0.00 | 0.00 | 80 | 979.2 |
| 20260906004304 | 78 | 204 | 0.0 | 0.0 | 0.00 | 0.00 | 0.00 | 78 | 979.2 |
| 20260906003805 | 78 | 204 | 0.0 | 1.7 | 0.00 | 0.00 | 0.00 | 79 | 979.1 |
| 20260906003305 | 78 | 204 | 0.0 | 1.7 | 0.00 | 0.00 | 0.00 | 76 | 979.1 |
| 20260906001806 | 78 | 196 | 0.0 | 1.7 | 0.00 | 0.00 | 0.00 | 77 | 979.0 |
| 20260906001306 | 78 | 196 | 0.0 | 1.7 | 0.00 | 0.00 | 0.00 | 76 | 978.9 |
| 20260906000804 | 78 | 202 | 0.9 | 1.7 | 0.00 | 0.00 | 0.00 | 77 | 978.9 |
| 20260906000305 | 78 | 183 | 0.0 | 0.0 | 0.00 | 0.00 | 0.00 | 77 | 978.9 |
| 20260905234804 | 78 | 183 | 0.0 | 0.9 | 0.00 | 0.00 | 0.00 | 76 | 978.6 |
| 20260905234304 | 79 | 192 | 0.0 | 0.0 | 0.00 | 0.00 | 0.00 | 76 | 978.6 |
| 20260905233805 | 79 | 192 | 0.0 | 0.0 | 0.00 | 0.00 | 0.00 | 77 | 978.5 |
| 20260905233305 | 79 | 192 | 0.0 | 0.0 | 0.00 | 0.00 | 0.00 | 75 | 978.5 |
| 20260905231805 | 80 | 200 | 0.0 | 0.0 | 0.00 | 0.00 | 0.00 | 73 | 978.5 |
| 20260905231304 | 80 | 200 | 0.0 | 0.0 | 0.00 | 0.00 | 0.00 | 73 | 978.6 |
| 20260905230805 | 80 | 200 | 0.0 | 0.0 | 0.00 | 0.00 | 0.00 | 72 | 978.6 |
| 20260905230305 | 80 | 200 | 0.0 | 0.0 | 0.00 | 0.00 | 0.00 | 72 | 978.7 |
| 20260905224804 | 80 | 200 | 0.0 | 0.9 | 0.00 | 0.00 | 0.00 | 72 | 978.8 |
| 20260905224304 | 80 | 170 | 0.0 | 0.0 | 0.00 | 0.00 | 0.00 | 74 | 978.9 |
| 20260905223805 | 80 | 170 | 0.0 | 0.0 | 0.00 | 0.00 | 0.00 | 74 | 978.9 |
| 20260905223304 | 80 | 170 | 0.0 | 0.0 | 0.00 | 0.00 | 0.00 | 74 | 978.9 |
| 20260905221306 | 80 | 170 | 0.0 | 0.0 | 0.00 | 0.00 | 0.00 | 71 | 978.7 |
| 20260905220804 | 80 | 170 | 0.0 | 0.0 | 0.00 | 0.00 | 0.00 | 72 | 978.7 |
| 20260905220305 | 80 | 170 | 0.0 | 0.9 | 0.00 | 0.00 | 0.00 | 72 | 978.9 |
| 20260905214804 | 79 | 193 | 0.0 | 0.0 | 0.00 | 0.00 | 0.00 | 74 | 978.9 |
| 20260905214304 | 80 | 193 | 0.0 | 0.0 | 0.00 | 0.00 | 0.00 | 73 | 979.0 |
| 20260905213805 | 80 | 193 | 0.0 | 0.0 | 0.00 | 0.00 | 0.00 | 73 | 979.1 |
| 20260905213305 | 80 | 193 | 0.0 | 0.0 | 0.00 | 0.00 | 0.00 | 73 | 979.0 |
| 20260905211805 | 80 | 193 | 0.0 | 1.7 | 0.00 | 0.00 | 0.00 | 69 | 979.5 |
| 20260905211304 | 80 | 194 | 0.0 | 1.7 | 0.00 | 0.00 | 0.00 | 71 | 979.6 |
| 20260905210804 | 79 | 204 | 0.0 | 0.0 | 0.00 | 0.00 | 0.00 | 71 | 979.5 |
| 20260905210305 | 80 | 204 | 0.0 | 0.0 | 0.00 | 0.00 | 0.00 | 70 | 979.4 |
| 20260905204805 | 80 | 204 | 0.0 | 0.0 | 0.00 | 0.00 | 0.00 | 70 | 979.5 |
| 20260905204304 | 79 | 204 | 0.0 | 0.0 | 0.00 | 0.00 | 0.00 | 74 | 979.5 |
| 20260905203804 | 79 | 218 | 0.0 | 0.0 | 0.00 | 0.00 | 0.00 | 72 | 979.2 |
| 20260905201806 | 79 | 76 | 0.0 | 0.0 | 0.00 | 0.00 | 0.00 | 74 | 979.4 |
| 20260905201305 | 79 | 76 | 0.0 | 0.9 | 0.00 | 0.00 | 0.00 | 75 | 979.6 |
| 20260905200804 | 79 | 76 | 0.0 | 0.9 | 0.00 | 0.00 | 0.00 | 73 | 979.6 |
| 20260905200305 | 79 | 212 | 0.0 | 0.0 | 0.00 | 0.00 | 0.00 | 75 | 979.6 |
| 20260905194804 | 79 | 212 | 0.0 | 0.0 | 0.00 | 0.00 | 0.00 | 73 | 979.6 |
| 20260905194304 | 79 | 212 | 0.0 | 2.6 | 0.00 | 0.00 | 0.00 | 73 | 979.4 |
| 20260905193804 | 79 | 212 | 0.9 | 2.6 | 0.00 | 0.00 | 0.00 | 72 | 979.3 |
| 20260905193305 | 79 | 209 | 0.9 | 2.6 | 0.00 | 0.00 | 0.00 | 72 | 979.5 |
| 20260905191804 | 83 | 32 | 0.9 | 2.6 | 0.00 | 0.00 | 0.00 | 66 | 980.5 |
| 20260905191304 | 84 | 17 | 0.9 | 2.6 | 0.00 | 0.00 | 0.00 | 67 | 980.4 |
| 20260905190805 | 85 | 22 | 1.7 | 2.6 | 0.00 | 0.00 | 0.00 | 69 | 980.3 |
| 20260905190304 | 87 | 14 | 0.0 | 2.6 | 0.00 | 0.00 | 0.00 | 67 | 979.9 |
| 20260905184804 | 89 | 89 | 0.0 | 0.0 | 0.00 | 0.00 | 0.00 | 65 | 979.3 |
| 20260905184304 | 89 | 89 | 0.0 | 0.0 | 0.00 | 0.00 | 0.00 | 65 | 979.3 |
| 20260905183804 | 90 | 89 | 0.0 | 0.9 | 0.00 | 0.00 | 0.00 | 64 | 979.3 |
| 20260905183305 | 91 | 89 | 0.0 | 0.9 | 0.00 | 0.00 | 0.00 | 60 | 979.1 |
| 20260905181806 | 92 | 89 | 0.0 | 0.0 | 0.00 | 0.00 | 0.00 | 58 | 979.5 |
| 20260905181306 | 93 | 89 | 0.0 | 0.9 | 0.00 | 0.00 | 0.00 | 57 | 979.4 |
| 20260905180305 | 94 | 134 | 0.0 | 1.7 | 0.00 | 0.00 | 0.00 | 53 | 979.4 |
| 20260905174804 | 94 | 152 | 0.9 | 2.6 | 0.00 | 0.00 | 0.00 | 55 | 979.5 |
| 20260905173805 | 94 | 38 | 0.0 | 1.7 | 0.00 | 0.00 | 0.00 | 53 | 979.8 |
| 20260905173305 | 94 | 39 | 0.0 | 0.9 | 0.00 | 0.00 | 0.00 | 57 | 979.9 |
| 20260905171805 | 93 | 112 | 0.0 | 0.9 | 0.00 | 0.00 | 0.00 | 59 | 979.9 |
| 20260905171304 | 93 | 187 | 0.0 | 0.0 | 0.00 | 0.00 | 0.00 | 58 | 980.0 |
| 20260905170804 | 93 | 187 | 0.0 | 0.0 | 0.00 | 0.00 | 0.00 | 59 | 980.1 |
| 20260905170305 | 93 | 187 | 0.0 | 1.7 | 0.00 | 0.00 | 0.00 | 58 | 980.2 |
| 20260905163805 | 92 | 205 | 0.0 | 0.9 | 0.00 | 0.00 | 0.00 | 58 | 980.7 |
| 20260905163304 | 92 | 89 | 0.0 | 0.9 | 0.00 | 0.00 | 0.00 | 56 | 980.7 |
| 20260905160305 | 90 | 187 | 0.9 | 1.7 | 0.00 | 0.00 | 0.00 | 59 | 980.8 |
| 20260905154806 | 90 | 203 | 0.0 | 0.0 | 0.00 | 0.00 | 0.00 | 62 | 980.9 |
| 20260905154304 | 89 | 203 | 0.0 | 0.0 | 0.00 | 0.00 | 0.00 | 64 | 981.0 |
| 20260905153805 | 89 | 203 | 0.0 | 0.0 | 0.00 | 0.00 | 0.00 | 66 | 981.0 |
| 20260905153305 | 89 | 203 | 0.0 | 0.0 | 0.00 | 0.00 | 0.00 | 65 | 981.0 |
| 20260905151804 | 88 | 189 | 0.0 | 0.0 | 0.00 | 0.00 | 0.00 | 68 | 981.0 |
| 20260905151304 | 88 | 189 | 0.0 | 0.9 | 0.00 | 0.00 | 0.00 | 67 | 981.0 |
| 20260905150804 | 87 | 189 | 0.0 | 0.9 | 0.00 | 0.00 | 0.00 | 69 | 981.0 |
| 20260905144804 | 85 | 195 | 0.9 | 1.7 | 0.00 | 0.00 | 0.00 | 71 | 981.1 |
| 20260905144304 | 85 | 255 | 0.0 | 0.0 | 0.00 | 0.00 | 0.00 | 72 | 981.1 |
| 20260905143805 | 85 | 255 | 0.0 | 0.0 | 0.00 | 0.00 | 0.00 | 72 | 981.1 |
| 20260905143304 | 84 | 255 | 0.0 | 0.0 | 0.00 | 0.00 | 0.00 | 73 | 981.2 |
| 20260905141806 | 83 | 195 | 0.0 | 0.0 | 0.00 | 0.00 | 0.00 | 74 | 981.3 |
| 20260905141305 | 83 | 194 | 0.0 | 0.9 | 0.00 | 0.00 | 0.00 | 76 | 981.3 |
| 20260905140305 | 82 | 193 | 0.0 | 0.9 | 0.00 | 0.00 | 0.00 | 78 | 981.4 |
| 20260905134804 | 81 | 200 | 0.0 | 0.9 | 0.00 | 0.00 | 0.00 | 80 | 981.5 |
| 20260905134304 | 81 | 201 | 0.0 | 0.9 | 0.00 | 0.00 | 0.00 | 81 | 981.6 |
| 20260905133805 | 80 | 205 | 0.0 | 1.7 | 0.00 | 0.00 | 0.00 | 82 | 981.5 |
| 20260905133305 | 80 | 204 | 0.9 | 1.7 | 0.00 | 0.00 | 0.00 | 82 | 981.6 |
| 20260905131804 | 79 | 113 | 0.0 | 0.0 | 0.00 | 0.00 | 0.00 | 86 | 981.5 |
| 20260905131304 | 78 | 113 | 0.0 | 0.0 | 0.00 | 0.00 | 0.00 | 87 | 981.6 |
| 20260905130804 | 78 | 113 | 0.0 | 0.0 | 0.00 | 0.00 | 0.00 | 88 | 981.6 |
| 20260905124805 | 77 | 113 | 0.0 | 0.0 | 0.00 | 0.00 | 0.00 | 88 | 981.5 |
| 20260905124304 | 76 | 113 | 0.0 | 0.0 | 0.00 | 0.00 | 0.00 | 88 | 981.4 |
| 20260905123305 | 76 | 113 | 0.0 | 0.0 | 0.00 | 0.00 | 0.00 | 89 | 981.4 |
| 20260905121806 | 76 | 113 | 0.0 | 0.0 | 0.00 | 0.00 | 0.00 | 89 | 981.3 |
| 20260905121305 | 76 | 113 | 0.0 | 0.0 | 0.00 | 0.00 | 0.00 | 90 | 981.4 |
| 20260905120804 | 76 | 113 | 0.0 | 0.0 | 0.00 | 0.00 | 0.00 | 89 | 981.3 |
| 20260905120305 | 76 | 113 | 0.0 | 0.0 | 0.00 | 0.00 | 0.00 | 89 | 981.3 |
| 20260905114804 | 76 | 113 | 0.0 | 0.0 | 0.00 | 0.00 | 0.00 | 88 | 981.2 |
| 20260905114304 | 76 | 113 | 0.0 | 0.0 | 0.00 | 0.00 | 0.00 | 88 | 981.2 |
| 20260905113804 | 76 | 113 | 0.0 | 0.0 | 0.00 | 0.00 | 0.00 | 88 | 981.1 |
| 20260905113305 | 76 | 113 | 0.0 | 0.0 | 0.00 | 0.00 | 0.00 | 88 | 981.0 |
| 20260905111804 | 76 | 218 | 0.0 | 1.7 | 0.00 | 0.00 | 0.00 | 87 | 980.8 |
| 20260905110305 | 76 | 199 | 0.0 | 0.0 | 0.00 | 0.00 | 0.00 | 87 | 980.6 |
| 20260905104804 | 76 | 199 | 0.0 | 0.9 | 0.00 | 0.00 | 0.00 | 86 | 980.6 |
| 20260905103804 | 75 | 208 | 0.0 | 0.9 | 0.00 | 0.00 | 0.00 | 88 | 980.5 |
| 20260905103304 | 75 | 205 | 0.0 | 0.9 | 0.00 | 0.00 | 0.00 | 87 | 980.4 |
| 20260905101806 | 76 | 196 | 0.0 | 0.0 | 0.00 | 0.00 | 0.00 | 87 | 980.3 |
| 20260905101306 | 76 | 196 | 0.0 | 0.0 | 0.00 | 0.00 | 0.00 | 86 | 980.3 |
| 20260905100804 | 75 | 196 | 0.0 | 0.0 | 0.00 | 0.00 | 0.00 | 86 | 980.3 |
| 20260905100305 | 76 | 196 | 0.0 | 0.0 | 0.00 | 0.00 | 0.00 | 87 | 980.2 |
| 20260905094805 | 76 | 196 | 0.0 | 0.0 | 0.00 | 0.00 | 0.00 | 87 | 980.2 |
| 20260905094304 | 76 | 196 | 0.0 | 0.0 | 0.00 | 0.00 | 0.00 | 85 | 980.2 |
| 20260905093804 | 76 | 196 | 0.0 | 0.0 | 0.00 | 0.00 | 0.00 | 85 | 980.2 |
| 20260905093304 | 76 | 196 | 0.0 | 0.0 | 0.00 | 0.00 | 0.00 | 85 | 980.2 |
| 20260905091805 | 76 | 196 | 0.0 | 0.0 | 0.00 | 0.00 | 0.00 | 86 | 980.3 |
| 20260905091304 | 76 | 196 | 0.0 | 0.0 | 0.00 | 0.00 | 0.00 | 86 | 980.2 |
| 20260905090804 | 75 | 196 | 0.0 | 0.0 | 0.00 | 0.00 | 0.00 | 86 | 980.3 |
| 20260905090305 | 75 | 196 | 0.0 | 0.0 | 0.00 | 0.00 | 0.00 | 87 | 980.3 |
| 20260905084805 | 75 | 196 | 0.0 | 0.0 | 0.00 | 0.00 | 0.00 | 87 | 980.4 |
| 20260905084304 | 75 | 196 | 0.0 | 0.9 | 0.00 | 0.00 | 0.00 | 87 | 980.5 |
| 20260905083804 | 75 | 196 | 0.0 | 0.9 | 0.00 | 0.00 | 0.00 | 87 | 980.5 |
| 20260905083305 | 75 | 207 | 0.0 | 0.9 | 0.00 | 0.00 | 0.00 | 87 | 980.6 |
| 20260905081807 | 76 | 192 | 0.0 | 0.0 | 0.00 | 0.00 | 0.00 | 86 | 980.6 |
| 20260905081306 | 76 | 192 | 0.0 | 0.0 | 0.00 | 0.00 | 0.00 | 86 | 980.5 |
| 20260905080805 | 76 | 192 | 0.0 | 0.0 | 0.00 | 0.00 | 0.00 | 86 | 980.6 |
| 20260905080304 | 76 | 192 | 0.0 | 0.0 | 0.00 | 0.00 | 0.00 | 86 | 980.7 |
| 20260905074804 | 76 | 192 | 0.0 | 0.0 | 0.00 | 0.00 | 0.00 | 86 | 980.8 |
| 20260905074305 | 76 | 192 | 0.0 | 0.0 | 0.00 | 0.00 | 0.00 | 85 | 980.9 |
| 20260905073804 | 76 | 192 | 0.0 | 1.7 | 0.00 | 0.00 | 0.00 | 85 | 981.0 |
| 20260905073305 | 76 | 192 | 0.0 | 1.7 | 0.00 | 0.00 | 0.00 | 84 | 981.0 |
| 20260905071804 | 76 | 176 | 0.0 | 0.0 | 0.00 | 0.00 | 0.00 | 85 | 981.0 |
| 20260905071304 | 76 | 176 | 0.0 | 0.0 | 0.00 | 0.00 | 0.00 | 85 | 981.0 |
| 20260905070804 | 76 | 176 | 0.0 | 0.0 | 0.00 | 0.00 | 0.00 | 85 | 981.0 |
| 20260905070305 | 76 | 176 | 0.0 | 0.0 | 0.00 | 0.00 | 0.00 | 86 | 981.1 |
| 20260905064805 | 77 | 176 | 0.0 | 0.0 | 0.00 | 0.00 | 0.00 | 85 | 981.1 |
| 20260905064305 | 78 | 176 | 0.0 | 0.0 | 0.00 | 0.00 | 0.00 | 84 | 981.1 |
| 20260905063304 | 78 | 176 | 0.0 | 0.9 | 0.00 | 0.00 | 0.00 | 82 | 981.1 |
| 20260905061806 | 78 | 202 | 0.0 | 0.0 | 0.00 | 0.00 | 0.00 | 84 | 981.2 |
| 20260905061305 | 78 | 202 | 0.0 | 0.9 | 0.00 | 0.00 | 0.00 | 83 | 981.3 |
| 20260905060805 | 78 | 202 | 0.0 | 0.9 | 0.00 | 0.00 | 0.00 | 84 | 981.4 |
| 20260905060305 | 78 | 181 | 0.0 | 0.9 | 0.00 | 0.00 | 0.00 | 82 | 981.4 |
| 20260905054805 | 78 | 177 | 0.0 | 0.0 | 0.00 | 0.00 | 0.00 | 82 | 981.5 |
| 20260905054304 | 78 | 177 | 0.0 | 0.9 | 0.00 | 0.00 | 0.00 | 82 | 981.6 |
| 20260905053804 | 78 | 177 | 0.0 | 1.7 | 0.00 | 0.00 | 0.00 | 81 | 981.7 |
| 20260905053305 | 78 | 206 | 0.0 | 1.7 | 0.00 | 0.00 | 0.00 | 81 | 981.7 |
| 20260905050306 | 79 | 195 | 0.0 | 0.0 | 0.00 | 0.00 | 0.00 | 82 | 981.6 |
| 20260905044807 | 80 | 195 | 0.0 | 0.0 | 0.00 | 0.00 | 0.00 | 80 | 981.6 |